Location: Alsip
(41.6689°N, 87.7387°W)
Time: 12:43:11
(UTC+00:00)

Cosmos 2074 Rocket - Pass Details

Date: 14 July 2020
Orbit: 967 x 986 km, 82.9° (Epoch: 05 August)

Event Time Altitude Azimuth Distance (km) Brightness Sun altitude
Exits shadow 02:34:54 - 167° (SSE) 2,866 6.0 -11.3°
Reaches altitude 10° 02:35:20 10° 166° (SSE) 2,708 5.8 -11.4°
Maximum altitude 02:41:18 53° 91° (E) 1,182 4.2 -12.2°
Drops below altitude 10° 02:47:19 10° 17° (NNE) 2,717 6.7 -13.0°
Sets 02:49:52 0° 13° (NNE) 3,667 7.5 -13.3°
